Kimball, NE

3:40 PM MDT on May 25, 2017 (GMT -0600)
Kimball Municipal-Arraj

Weather History for KIBM - November, 2012

Change the Weather History Date:

Thursday, November 1, 2012

  Actual Average (KSNY) Record (KSNY)
Temperature  
Mean Temperature 52 °F -  
Max Temperature 70 °F 50 °F 77 °F (1965)
Min Temperature 33 °F 24 °F -2 °F (2002)
Degree Days  
Heating Degree Days 14    
Growing Degree Days 2 (Base 50)    
Moisture  
Dew Point 28 °F    
Average Humidity 50    
Maximum Humidity 84    
Minimum Humidity 13    
Precipitation  
Precipitation 0.00 in - - ()
Sea Level Pressure  
Sea Level Pressure 29.99 in    
Wind  
Wind Speed 7 mph (WSW)    
Max Wind Speed 12 mph    
Max Gust Speed -    
Visibility 10 miles    
Events      
Averages and records for this station are not official NWS values.
T = Trace of Precipitation, MM = Missing Value Source: NWS Daily Summary

Daily Weather History Graph

Daily Weather History Graph

Search for Another Location

Airport or City:

Trip Planner

Search our weather history database for the weather conditions in past years. The results will help you decide how hot, cold, wet, or windy it might be!

Date:

Astronomy

Nov. 01, 2012 Rise Set
Actual Time 8:26 AM CDT 6:49 PM CDT
Civil Twilight 7:57 AM CDT 7:18 PM CDT
Nautical Twilight 7:25 AM CDT 7:50 PM CDT
Astronomical Twilight 6:53 AM CDT 8:22 PM CDT
Moon 8:47 PM CDT (11/1) 11:02 AM CDT (11/1)
Length of Visible Light 11h 20m
Length of Day
10h 22m
Waning Gibbous, 93% of the Moon is Illuminated
Nov 1
Waning Gibbous
Nov 6
Last Quarter
Nov 13
New
Nov 20
First Quarter
Nov 28
Full

Hourly Weather History & Observations

Time (CDT) Temp. Windchill Dew Point Humidity Pressure Visibility Wind Dir Wind Speed Gust Speed Precip Events Conditions
12:15 AM 37.9 °F 33.5 °F 30.0 °F 73% 30.12 in 10.0 mi West 5.8 mph - N/A   Clear
12:35 AM 37.8 °F 32.5 °F 30.2 °F 74% 30.12 in 10.0 mi West 6.9 mph - N/A   Clear
1:15 AM 35.1 °F 30.1 °F 30.2 °F 82% 30.12 in 10.0 mi West 5.8 mph - N/A   Clear
1:35 AM 37.8 °F 31.8 °F 30.7 °F 76% 30.11 in 10.0 mi West 8.1 mph - N/A   Clear
1:55 AM 36.5 °F 31.0 °F 30.0 °F 77% 30.11 in 10.0 mi West 6.9 mph - N/A   Clear
2:15 AM 37.0 °F 30.4 °F 30.2 °F 76% 30.11 in 10.0 mi WSW 9.2 mph - N/A   Clear
2:35 AM 37.0 °F 30.4 °F 30.4 °F 77% 30.10 in 10.0 mi WSW 9.2 mph - N/A   Clear
2:55 AM 36.5 °F 29.2 °F 30.2 °F 78% 30.10 in 10.0 mi WSW 10.4 mph - N/A   Clear
3:15 AM 37.0 °F 29.8 °F 30.4 °F 77% 30.09 in 10.0 mi WSW 10.4 mph - N/A   Clear
3:35 AM 36.7 °F 30.5 °F 30.6 °F 78% 30.09 in 10.0 mi West 8.1 mph - N/A   Clear
3:55 AM 36.5 °F 29.7 °F 30.2 °F 78% 30.09 in 10.0 mi WSW 9.2 mph - N/A   Clear
4:15 AM 35.6 °F 28.6 °F 30.0 °F 80% 30.08 in 10.0 mi West 9.2 mph - N/A   Clear
4:35 AM 35.2 °F 28.1 °F 29.8 °F 81% 30.07 in 10.0 mi WSW 9.2 mph - N/A   Clear
4:55 AM 35.6 °F 28.0 °F 30.0 °F 80% 30.06 in 10.0 mi West 10.4 mph - N/A   Clear
5:15 AM 36.5 °F 30.3 °F 30.0 °F 77% 30.06 in 10.0 mi West 8.1 mph - N/A   Clear
5:35 AM 34.9 °F 29.9 °F 29.3 °F 80% 30.05 in 10.0 mi West 5.8 mph - N/A   Clear
5:55 AM 33.6 °F 29.4 °F 28.9 °F 83% 30.05 in 10.0 mi West 4.6 mph - N/A   Clear
6:15 AM 33.8 °F 27.7 °F 29.3 °F 84% 30.05 in 10.0 mi WSW 6.9 mph - N/A   Clear
6:35 AM 35.2 °F 28.1 °F 29.8 °F 81% 30.04 in 10.0 mi West 9.2 mph - N/A   Clear
6:55 AM 35.4 °F 30.5 °F 29.8 °F 80% 30.03 in 10.0 mi West 5.8 mph - N/A   Clear
7:35 AM 35.1 °F 29.3 °F 30.0 °F 82% 30.03 in 10.0 mi WSW 6.9 mph - N/A   Clear
8:35 AM 37.9 °F 32.7 °F 30.7 °F 75% 30.01 in 10.0 mi SW 6.9 mph - N/A   Clear
8:55 AM 38.1 °F 32.3 °F 31.3 °F 76% 30.02 in 10.0 mi WSW 8.1 mph - N/A   Clear
9:15 AM 39.9 °F 35.1 °F 32.2 °F 74% 30.02 in 10.0 mi WSW 6.9 mph - N/A   Clear
9:35 AM 41.9 °F 38.2 °F 33.1 °F 71% 30.02 in 10.0 mi West 5.8 mph - N/A   Clear
9:55 AM 43.0 °F 38.2 °F 33.1 °F 68% 30.02 in 10.0 mi West 8.1 mph - N/A   Clear
10:15 AM 45.9 °F 42.9 °F 33.8 °F 63% 30.02 in 10.0 mi WSW 5.8 mph - N/A   Clear
10:35 AM 48.0 °F - 35.1 °F 61% 30.02 in 10.0 mi Calm Calm - N/A   Clear
11:15 AM 57.6 °F - 33.6 °F 41% 30.01 in 10.0 mi WSW 6.9 mph - N/A   Clear
11:35 AM 60.3 °F - 32.4 °F 35% 30.01 in 10.0 mi SSW 6.9 mph - N/A   Clear
11:55 AM 63.0 °F - 28.6 °F 27% 30.01 in 10.0 mi SW 8.1 mph - N/A   Clear
12:15 PM 64.4 °F - 28.0 °F 25% 30.00 in 10.0 mi SW 10.4 mph - N/A   Clear
12:35 PM 66.4 °F - 28.8 °F 24% 30.00 in 10.0 mi WSW 9.2 mph - N/A   Clear
12:55 PM 68.0 °F - 27.0 °F 21% 29.99 in 10.0 mi WSW 6.9 mph - N/A   Clear
1:15 PM 67.3 °F - 26.6 °F 22% 29.99 in 10.0 mi SW 6.9 mph - N/A   Clear
1:35 PM 68.2 °F - 25.3 °F 20% 29.97 in 10.0 mi WSW 6.9 mph - N/A   Clear
1:55 PM 68.9 °F - 25.7 °F 20% 29.96 in 10.0 mi SW 6.9 mph - N/A   Clear
2:15 PM 68.7 °F - 25.7 °F 20% 29.95 in 10.0 mi SSW 8.1 mph - N/A   Clear
2:35 PM 70.2 °F - 25.5 °F 19% 29.94 in 10.0 mi SW 5.8 mph - N/A   Clear
2:55 PM 69.8 °F - 22.3 °F 17% 29.94 in 10.0 mi SW 9.2 mph - N/A   Clear
3:15 PM 69.4 °F - 21.4 °F 16% 29.93 in 10.0 mi SW 6.9 mph - N/A   Clear
3:35 PM 69.3 °F - 22.5 °F 17% 29.93 in 10.0 mi WSW 8.1 mph - N/A   Clear
3:55 PM 70.0 °F - 23.0 °F 17% 29.92 in 10.0 mi WSW 8.1 mph - N/A   Clear
4:15 PM 70.5 °F - 22.1 °F 16% 29.92 in 10.0 mi West 9.2 mph - N/A   Clear
4:35 PM 70.3 °F - 22.1 °F 16% 29.92 in 10.0 mi WSW 4.6 mph - N/A   Clear
4:55 PM 69.8 °F - 18.7 °F 14% 29.92 in 10.0 mi WNW 11.5 mph - N/A   Clear
5:15 PM 69.8 °F - 16.5 °F 13% 29.91 in 10.0 mi NW 11.5 mph - N/A   Clear
5:35 PM 67.6 °F - 16.7 °F 14% 29.92 in 10.0 mi NW 5.8 mph - N/A   Clear
5:55 PM 65.5 °F - 18.3 °F 16% 29.92 in 10.0 mi NW 3.5 mph - N/A   Clear
6:15 PM 62.4 °F - 21.0 °F 20% 29.92 in 10.0 mi WNW 4.6 mph - N/A   Clear
6:35 PM 59.0 °F - 21.9 °F 24% 29.91 in 5.0 mi WNW 4.6 mph - N/A   Haze
6:55 PM 55.4 °F - 23.0 °F 29% 29.91 in 10.0 mi West 4.6 mph - N/A   Clear
7:15 PM 52.9 °F - 24.1 °F 33% 29.92 in 10.0 mi South 6.9 mph - N/A   Clear
7:35 PM 52.7 °F - 26.6 °F 36% 29.91 in 10.0 mi SSW 6.9 mph - N/A   Clear
7:55 PM 50.9 °F - 29.1 °F 43% 29.92 in 10.0 mi SSW 5.8 mph - N/A   Clear
8:15 PM 50.0 °F - 29.3 °F 45% 29.92 in 10.0 mi SW 5.8 mph - N/A   Clear
8:35 PM 48.6 °F - 30.2 °F 49% 29.92 in 10.0 mi SW 6.9 mph - N/A   Clear
8:55 PM 49.1 °F - 30.2 °F 48% 29.92 in 10.0 mi SW 8.1 mph - N/A   Clear
9:15 PM 50.4 °F - 31.6 °F 49% 29.91 in 10.0 mi SW 5.8 mph - N/A   Clear
9:35 PM 52.3 °F - 31.6 °F 45% 29.91 in 10.0 mi SW 8.1 mph - N/A   Clear
9:55 PM 51.3 °F - 31.8 °F 47% 29.91 in 10.0 mi SW 8.1 mph - N/A   Clear
10:15 PM 48.7 °F - 32.9 °F 54% 29.91 in 10.0 mi WSW 8.1 mph - N/A   Clear
10:35 PM 49.5 °F - 33.3 °F 54% 29.91 in 10.0 mi West 6.9 mph - N/A   Clear
10:55 PM 49.3 °F - 32.9 °F 53% 29.92 in 10.0 mi West 9.2 mph - N/A   Clear
11:15 PM 50.4 °F - 33.4 °F 52% 29.92 in 10.0 mi WSW 9.2 mph - N/A   Clear
11:35 PM 50.0 °F - 34.9 °F 56% 29.91 in 10.0 mi WSW 8.1 mph - N/A   Clear
11:55 PM 49.5 °F - 35.1 °F 58% 29.91 in 10.0 mi WSW 9.2 mph - N/A   Clear